FW5399 Weather Reports


Display with metric or nautical units.
time (UTC)temp
F
wind
direction
speed
MPH
gust
MPH
rain 1hr
in
rain 24hr
in
rain mn
in
humidity
%
barometer
mb
20260502170133 43 305 0.0 2.0 0.00 0.01 0.01 100 1035.3
20260502164133 42 315 0.0 1.0 0.00 0.01 0.01 99 1035.3
20260502163625 42 315 0.0 1.0 0.00 0.01 0.01 99 1035.3
20260502163129 42 315 0.0 1.0 0.00 0.01 0.01 99 1035.3
20260502162626 42 321 0.0 2.0 0.00 0.01 0.01 99 1035.5
20260502162125 43 322 0.0 2.0 0.00 0.01 0.01 99 1035.3
20260502161626 43 316 0.0 1.0 0.00 0.01 0.01 99 1035.4
20260502161122 42 293 0.0 0.0 0.00 0.01 0.01 99 1035.3
20260502160614 42 331 0.0 1.0 0.00 0.02 0.01 99 1035.3
20260502160109 43 331 0.0 1.0 0.00 0.02 0.01 99 1035.3
20260502152022 43 291 0.0 0.0 0.01 0.02 0.01 99 1035.3
20260502151514 43 298 0.0 1.0 0.01 0.02 0.01 99 1035.4
20260502151008 43 298 0.0 3.0 0.01 0.02 0.01 99 1035.4
20260502150502 43 298 0.0 3.0 0.01 0.02 0.01 99 1035.4
20260502130306 44 336 0.0 1.0 0.00 0.01 0.00 100 1035.1
20260502123805 44 345 0.0 1.0 0.00 0.01 0.00 100 1034.9
20260502123306 44 354 0.0 1.0 0.00 0.01 0.00 100 1035.1
20260502123210 44 355 0.0 1.0 0.00 0.01 0.00 100 1035.1
20260502122306 44 357 0.0 0.0 0.00 0.01 0.00 100 1034.8
20260502121809 44 357 0.0 0.0 0.00 0.01 0.00 100 1034.9
20260502121309 43 357 0.0 0.0 0.00 0.01 0.00 100 1034.9
20260502121151 42 108 0.0 0.0 0.00 0.01 0.00 99 1035.1
20260502120306 42 108 0.0 0.0 0.00 0.01 0.00 99 1034.9
20260502120216 42 108 0.0 0.0 0.00 0.01 0.01 99 1034.9
20260502115253 41 108 0.0 0.0 0.00 0.01 0.01 99 1035.1
20260502115142 41 108 0.0 0.0 0.00 0.01 0.01 99 1034.8
20260502114242 42 108 0.0 0.0 0.00 0.01 0.01 99 1034.8
20260502113735 42 108 0.0 0.0 0.00 0.01 0.01 99 1034.8
20260502113229 42 108 0.0 0.0 0.00 0.01 0.01 99 1034.8
20260502112723 42 108 0.0 0.0 0.00 0.01 0.01 99 1034.7
20260502112217 42 108 0.0 0.0 0.00 0.01 0.01 99 1034.8
20260502111712 42 108 0.0 0.0 0.00 0.01 0.01 98 1034.8
20260502111205 41 108 0.0 0.0 0.00 0.01 0.01 98 1034.7
20260502110659 42 108 0.0 0.0 0.00 0.01 0.01 98 1034.7
20260502110153 42 108 0.0 0.0 0.00 0.01 0.01 98 1034.7
20260502105647 42 108 0.0 0.0 0.00 0.01 0.01 98 1034.8
20260502105142 43 108 0.0 0.0 0.00 0.01 0.01 99 1034.7
20260502104635 43 108 0.0 0.0 0.00 0.01 0.01 99 1034.7
20260502104131 43 108 0.0 0.0 0.00 0.01 0.01 99 1034.6
20260502103625 43 108 0.0 0.0 0.00 0.01 0.01 99 1034.7
20260502103126 44 108 0.0 0.0 0.00 0.01 0.01 99 1034.7
20260502102626 44 108 0.0 0.0 0.00 0.01 0.01 99 1034.6
20260502102519 44 108 0.0 0.0 0.00 0.01 0.01 99 1034.5
20260502101626 44 108 0.0 0.0 0.00 0.01 0.01 99 1034.5
20260502101124 44 108 0.0 0.0 0.00 0.01 0.01 99 1034.5
20260502100623 43 108 0.0 0.0 0.00 0.01 0.01 99 1034.6
20260502100130 42 108 0.0 0.0 0.00 0.01 0.01 99 1034.5
20260502091505 42 108 0.0 0.0 0.00 0.01 0.01 98 1034.2
20260502090618 41 108 0.0 0.0 0.00 0.01 0.01 98 1034.0
20260502090107 41 108 0.0 0.0 0.00 0.01 0.01 98 1034.0
20260502080104 41 108 0.0 0.0 0.00 0.01 0.01 97 1033.8
20260502071043 43 108 0.0 0.0 0.00 0.01 0.01 95 1033.6
20260502070536 43 108 0.0 0.0 0.00 0.01 0.01 95 1033.5
20260502070032 44 108 0.0 0.0 0.00 0.01 0.01 95 1033.4
20260502065524 44 108 0.0 0.0 0.00 0.01 0.01 95 1033.4
20260502065419 44 108 0.0 0.0 0.00 0.01 0.01 95 1033.5
20260502064512 44 108 0.0 0.0 0.00 0.01 0.01 95 1033.5
20260502064006 45 108 0.0 0.0 0.00 0.01 0.01 95 1033.4
20260502063502 45 108 0.0 0.0 0.00 0.01 0.01 94 1033.5
20260502062954 45 108 0.0 0.0 0.00 0.01 0.01 94 1033.4
20260502062850 45 108 0.0 0.0 0.00 0.01 0.01 93 1033.6
20260502062344 46 108 0.0 0.0 0.00 0.01 0.01 93 1033.4
20260502061703 46 107 0.0 0.0 0.00 0.01 0.01 93 1033.2
20260502060932 47 108 0.0 0.0 0.00 0.01 0.01 93 1033.1
20260502060424 47 107 0.0 0.0 0.00 0.01 0.01 92 1033.2
20260502055918 48 108 0.0 0.0 0.00 0.01 0.01 92 1033.1
20260502055412 48 107 0.0 0.0 0.00 0.01 0.01 92 1033.1
20260502054906 49 108 0.0 0.0 0.00 0.01 0.01 92 1033.1
20260502054801 49 107 0.0 0.0 0.00 0.01 0.01 91 1032.9
20260502053855 49 108 0.0 0.0 0.00 0.01 0.01 90 1032.9
20260502053724 50 107 0.0 0.0 0.00 0.01 0.01 90 1032.9
20260502052842 51 107 0.0 0.0 0.00 0.01 0.01 90 1032.7
20260502052337 51 107 0.0 0.0 0.00 0.01 0.01 89 1032.7
20260502051832 52 108 0.0 0.0 0.00 0.01 0.01 88 1032.7
20260502051325 53 107 0.0 0.0 0.00 0.01 0.01 88 1032.7
20260502051259 53 107 0.0 0.0 0.00 0.01 0.01 87 1032.7
20260502050312 54 107 0.0 0.0 0.00 0.01 0.01 86 1032.7
20260502045806 55 107 0.0 0.0 0.00 0.01 0.01 84 1032.5
20260502045305 56 107 0.0 0.0 0.00 0.01 0.01 83 1032.4
20260502044754 56 107 0.0 0.0 0.00 0.01 0.01 81 1032.5
20260502044248 58 107 0.0 0.0 0.00 0.01 0.01 79 1032.4
20260502043742 58 108 0.0 1.0 0.00 0.01 0.01 77 1032.4
20260502043236 59 108 0.0 1.0 0.00 0.01 0.01 76 1032.4
20260502042733 59 164 0.0 1.0 0.00 0.01 0.01 75 1032.5
20260502042224 60 131 0.0 2.0 0.00 0.01 0.01 74 1032.5
20260502041718 60 119 1.0 6.0 0.00 0.01 0.01 73 1032.6
20260502041211 60 164 1.0 6.0 0.00 0.01 0.01 72 1032.4
20260502040706 61 135 1.0 6.0 0.00 0.01 0.01 72 1032.5
20260502040202 61 175 2.0 10.0 0.00 0.01 0.01 72 1032.4
20260502035654 61 154 2.0 10.0 0.00 0.01 0.01 71 1032.5
20260502035149 61 172 0.0 9.0 0.00 0.01 0.01 72 1032.4
20260502034642 62 117 0.0 1.0 0.00 0.01 0.01 71 1032.4
20260502034136 64 117 0.0 1.0 0.00 0.01 0.01 69 1032.6
20260502033636 65 121 0.0 1.0 0.00 0.01 0.01 66 1032.6
20260502033134 66 121 0.0 1.0 0.00 0.01 0.01 63 1032.6
20260502032632 66 345 0.0 0.0 0.00 0.01 0.01 66 1032.6
20260502032133 66 345 0.0 0.0 0.00 0.01 0.01 67 1032.6
20260502031633 66 345 0.0 1.0 0.00 0.01 0.01 68 1032.7
20260502031135 66 345 0.0 1.0 0.00 0.01 0.01 68 1032.7
20260502030633 66 345 0.0 1.0 0.00 0.01 0.01 67 1032.8
20260502030137 66 345 0.0 1.0 0.00 0.01 0.01 66 1032.8
20260502025631 66 345 0.0 1.0 0.00 0.01 0.01 66 1032.9
20260502025127 67 345 0.0 1.0 0.00 0.01 0.01 64 1032.8
20260502024752 67 340 0.0 1.0 0.00 0.01 0.01 62 1032.8
20260502024019 67 343 0.0 1.0 0.00 0.01 0.01 62 1033.0
20260502023126 68 345 0.0 1.0 0.00 0.01 0.01 63 1033.0
20260502022623 68 279 0.0 1.0 0.00 0.01 0.01 65 1033.1
20260502022122 68 279 0.0 1.0 0.00 0.01 0.01 64 1033.1
20260502021622 68 270 0.0 1.0 0.00 0.01 0.01 59 1033.2
20260502021116 67 307 0.0 1.0 0.00 0.01 0.01 66 1033.2
20260502020614 68 307 0.0 1.0 0.00 0.01 0.01 63 1033.3
20260502020113 68 303 0.0 1.0 0.00 0.01 0.01 64 1033.2
20260502015614 67 303 0.0 1.0 0.00 0.01 0.01 64 1033.3
20260502015119 67 301 0.0 0.0 0.00 0.01 0.01 63 1033.4
20260502014622 67 301 0.0 1.0 0.00 0.01 0.01 64 1033.4
20260502014120 67 302 0.0 1.0 0.00 0.01 0.01 65 1033.5
20260502013619 68 357 0.0 3.0 0.00 0.01 0.01 60 1033.4
20260502013114 68 256 0.0 3.0 0.00 0.01 0.01 57 1033.5
20260502012615 68 312 0.0 2.0 0.00 0.01 0.01 60 1033.4
20260502012117 68 296 0.0 2.0 0.00 0.01 0.01 59 1033.4
20260502011627 68 337 0.0 2.0 0.00 0.01 0.01 61 1033.5
20260502011115 68 260 0.0 2.0 0.00 0.01 0.01 62 1033.5
20260502010615 67 49 0.0 1.0 0.00 0.01 0.01 62 1033.6
20260502010116 67 301 0.0 2.0 0.00 0.01 0.01 60 1033.7
20260502005956 67 347 0.0 2.0 0.00 0.01 0.01 63 1033.9
20260502005113 67 326 0.0 1.0 0.00 0.01 0.01 62 1033.9
20260502004612 67 308 0.0 3.0 0.00 0.01 0.01 64 1034.1
20260502004503 67 310 0.0 3.0 0.00 0.01 0.01 61 1034.3
20260502003751 67 298 0.0 0.0 0.00 0.01 0.01 62 1034.3
20260502002956 66 254 0.0 1.0 0.00 0.01 0.01 69 1034.6
20260502002055 66 199 0.0 1.0 0.00 0.01 0.01 68 1034.7
20260502001549 66 198 0.0 2.0 0.00 0.01 0.01 62 1034.8
20260502001043 66 232 0.0 2.0 0.00 0.01 0.01 63 1034.9
20260502000537 66 253 0.0 1.0 0.00 0.01 0.01 64 1035.2
20260502000032 66 275 0.0 1.0 0.00 0.01 0.01 66 1035.3
20260501235523 65 355 0.0 1.0 0.00 0.01 0.01 70 1035.2
20260501235017 65 307 0.0 2.0 0.00 0.01 0.01 66 1035.2
20260501234513 65 274 0.0 2.0 0.00 0.01 0.01 65 1035.3
20260501234007 65 248 0.0 1.0 0.00 0.01 0.01 67 1035.4
20260501233459 65 326 0.0 1.0 0.00 0.01 0.01 69 1035.5
20260501232953 64 328 0.0 3.0 0.00 0.01 0.01 70 1035.6
20260501232448 64 300 0.0 3.0 0.00 0.01 0.01 69 1035.8
20260501231942 64 153 0.0 2.0 0.00 0.01 0.01 69 1035.8
20260501231435 63 336 0.0 2.0 0.00 0.01 0.01 71 1035.6
20260501230930 63 343 0.0 2.0 0.00 0.01 0.01 70 1035.7
20260501230435 62 348 0.0 1.0 0.00 0.01 0.01 74 1035.8
20260501225916 62 2 0.0 1.0 0.00 0.01 0.01 72 1035.8
20260501225412 62 329 0.0 1.0 0.00 0.01 0.01 74 1035.8
20260501225320 62 303 0.0 1.0 0.00 0.01 0.01 74 1035.8
20260501224359 61 300 0.0 1.0 0.00 0.01 0.01 74 1035.9
20260501223853 61 224 0.0 1.0 0.00 0.01 0.01 76 1036.0
20260501223347 60 324 0.0 1.0 0.00 0.01 0.01 77 1036.2
20260501222842 60 270 0.0 1.0 0.00 0.01 0.01 76 1036.4
20260501222335 59 269 0.0 1.0 0.00 0.01 0.01 75 1036.2
20260501222229 59 312 0.0 1.0 0.00 0.01 0.01 75 1036.2
20260501221715 59 317 0.0 3.0 0.00 0.01 0.01 77 1036.3
20260501221211 58 334 0.0 3.0 0.00 0.01 0.01 77 1036.3
20260501220709 58 316 0.0 3.0 0.00 0.01 0.01 79 1036.2
20260501215808 57 324 0.0 3.0 0.00 0.01 0.01 79 1036.4
20260501215306 57 350 0.0 1.0 0.00 0.01 0.01 78 1036.4
20260501214805 56 317 0.0 2.0 0.00 0.01 0.01 79 1036.4
20260501214313 56 316 0.0 2.0 0.00 0.01 0.01 79 1036.5
20260501214155 56 308 0.0 1.0 0.00 0.01 0.01 80 1036.5
20260501213307 55 312 0.0 1.0 0.00 0.01 0.01 81 1036.4
20260501212809 55 312 0.0 1.0 0.00 0.01 0.01 81 1036.4
20260501212307 54 287 0.0 2.0 0.00 0.01 0.01 81 1036.5
20260501211808 54 343 0.0 2.0 0.00 0.01 0.01 82 1036.6
20260501211305 53 3 0.0 1.0 0.00 0.01 0.01 81 1036.6
20260501210806 53 311 0.0 2.0 0.00 0.01 0.01 83 1036.8
20260501210304 53 312 0.0 2.0 0.00 0.01 0.01 83 1036.9
20260501205806 52 345 0.0 2.0 0.00 0.01 0.01 82 1037.0
20260501205309 52 307 0.0 1.0 0.00 0.01 0.01 82 1037.0
20260501204810 52 343 0.0 1.0 0.00 0.01 0.01 84 1037.0
20260501204308 51 343 0.0 1.0 0.00 0.01 0.01 84 1037.1
20260501203803 51 304 0.0 1.0 0.00 0.01 0.01 85 1037.2
20260501203303 50 324 0.0 1.0 0.00 0.01 0.01 86 1037.2
20260501202758 49 341 0.0 3.0 0.00 0.01 0.01 88 1036.9
20260501202252 49 343 0.0 3.0 0.00 0.01 0.01 88 1037.0
20260501201747 48 322 0.0 0.0 0.00 0.01 0.01 89 1037.0
20260501201240 47 323 0.0 0.0 0.00 0.01 0.01 90 1037.0
20260501200733 47 323 0.0 1.0 0.00 0.01 0.01 91 1036.9
20260501200603 46 323 0.0 1.0 0.00 0.01 0.01 92 1036.8
20260501195727 46 324 0.0 1.0 0.00 0.01 0.01 93 1036.8
20260501195228 45 295 0.0 1.0 0.00 0.01 0.01 95 1036.8
20260501194726 45 295 0.0 1.0 0.00 0.01 0.01 96 1036.9
20260501194621 44 295 0.0 1.0 0.00 0.01 0.01 97 1036.8
20260501193723 43 329 0.0 1.0 0.00 0.01 0.01 98 1036.7
20260501193220 43 329 0.0 1.0 0.00 0.01 0.01 98 1036.8
20260501192722 42 331 0.0 1.0 0.00 0.01 0.01 98 1036.6
20260501192221 41 328 0.0 1.0 0.00 0.01 0.01 97 1036.5
20260501191731 41 328 0.0 1.0 0.00 0.01 0.01 97 1036.5
20260501191222 41 334 0.0 1.0 0.00 0.01 0.01 97 1036.6
20260501190722 41 327 0.0 1.0 0.00 0.01 0.01 97 1036.5
20260501190221 41 331 0.0 1.0 0.00 0.01 0.01 97 1036.4
20260501185720 41 326 0.0 1.0 0.00 0.01 0.01 97 1036.4
20260501185223 41 327 0.0 1.0 0.00 0.01 0.01 97 1036.4
20260501184721 41 292 0.0 1.0 0.00 0.01 0.01 97 1036.4
20260501184357 41 291 0.0 1.0 0.00 0.01 0.01 97 1036.5
20260501183217 41 283 0.0 1.0 0.00 0.01 0.01 97 1036.5
20260501182715 41 267 0.0 1.0 0.00 0.01 0.01 97 1036.5
20260501182217 41 16 0.0 1.0 0.00 0.01 0.01 97 1036.4
20260501181713 41 297 0.0 1.0 0.00 0.01 0.01 97 1036.4
20260501181218 41 341 0.0 1.0 0.00 0.01 0.01 97 1036.5
20260501180711 41 307 0.0 1.0 0.00 0.01 0.01 97 1036.4
20260501180208 41 299 0.0 1.0 0.00 0.01 0.01 97 1036.3
20260501175702 41 299 0.0 1.0 0.00 0.01 0.01 96 1036.3
20260501175202 42 324 0.0 1.0 0.00 0.01 0.01 96 1036.4
20260501174648 42 320 0.0 1.0 0.00 0.01 0.01 96 1036.3
20260501174530 42 309 0.0 1.0 0.00 0.01 0.01 96 1036.3
20260501174056 42 287 0.0 1.0 0.00 0.01 0.01 96 1036.1
20260501173519 42 341 0.0 1.0 0.00 0.01 0.01 97 1036.2
20260501172623 42 303 0.0 1.0 0.00 0.01 0.01 96 1036.3
20260501172117 42 322 0.0 1.0 0.00 0.01 0.01 96 1036.2
20260501171955 42 305 0.0 1.0 0.00 0.01 0.01 96 1036.2